TimeMST,TemperatureF,Dew PointF,Humidity,Sea Level PressureIn,VisibilityMPH,Wind Direction,Wind SpeedMPH,Gust SpeedMPH,PrecipitationIn,Events,Conditions,WindDirDegrees,DateUTC
12:52 AM,30.9,30.0,96,30.27,-9999.0,Calm,Calm,-,N/A,,Unknown,0,2013-03-04 07:52:00
1:52 AM,30.9,28.9,92,30.29,-9999.0,Calm,Calm,-,N/A,,Unknown,0,2013-03-04 08:52:00
2:52 AM,30.9,30.0,96,30.30,-9999.0,Calm,Calm,-,N/A,,Unknown,0,2013-03-04 09:52:00
3:52 AM,30.9,28.9,92,30.31,-9999.0,Calm,Calm,-,N/A,,Unknown,0,2013-03-04 10:52:00
4:52 AM,30.9,28.9,92,30.33,-9999.0,NNW,3.5,-,N/A,,Unknown,340,2013-03-04 11:52:00
5:52 AM,30.0,28.9,96,30.35,-9999.0,Calm,Calm,-,N/A,,Unknown,0,2013-03-04 12:52:00
6:52 AM,28.9,28.0,96,30.36,-9999.0,Calm,Calm,-,N/A,,Unknown,0,2013-03-04 13:52:00
7:52 AM,28.9,28.0,96,30.38,-9999.0,Calm,Calm,-,N/A,,Unknown,0,2013-03-04 14:52:00
8:52 AM,30.0,28.0,92,30.40,-9999.0,Calm,Calm,-,N/A,,Unknown,0,2013-03-04 15:52:00
9:52 AM,36.0,30.0,79,30.40,-9999.0,Calm,Calm,-,N/A,,Unknown,0,2013-03-04 16:52:00
10:52 AM,39.9,30.0,68,30.38,-9999.0,Calm,Calm,-,N/A,,Unknown,0,2013-03-04 17:52:00
11:52 AM,44.1,28.0,53,30.35,-9999.0,Calm,Calm,-,N/A,,Unknown,0,2013-03-04 18:52:00
12:52 PM,46.0,26.1,46,30.32,-9999.0,Calm,Calm,-,N/A,,Unknown,0,2013-03-04 19:52:00
1:52 PM,51.1,24.1,35,30.25,-9999.0,Variable,3.5,-,N/A,,Unknown,0,2013-03-04 20:52:00
2:52 PM,52.0,26.1,37,30.23,-9999.0,Calm,Calm,-,N/A,,Unknown,0,2013-03-04 21:52:00
3:52 PM,51.1,26.1,38,30.21,-9999.0,Calm,Calm,-,N/A,,Unknown,0,2013-03-04 22:52:00
4:52 PM,39.9,30.0,68,30.22,-9999.0,Calm,Calm,-,N/A,,Unknown,0,2013-03-04 23:52:00
5:52 PM,37.0,32.0,82,30.22,-9999.0,Calm,Calm,-,N/A,,Unknown,0,2013-03-05 00:52:00
6:52 PM,34.0,30.9,89,30.23,-9999.0,Calm,Calm,-,N/A,,Unknown,0,2013-03-05 01:52:00
7:52 PM,33.1,30.0,89,30.24,-9999.0,Calm,Calm,-,N/A,,Unknown,0,2013-03-05 02:52:00
8:52 PM,32.0,28.9,88,30.25,-9999.0,North,3.5,-,N/A,,Unknown,360,2013-03-05 03:52:00
9:52 PM,30.0,28.0,92,30.25,-9999.0,Calm,Calm,-,N/A,,Unknown,0,2013-03-05 04:52:00
10:52 PM,30.0,28.0,92,30.24,-9999.0,Calm,Calm,-,N/A,,Unknown,0,2013-03-05 05:52:00
11:52 PM,28.0,27.0,96,30.24,-9999.0,Calm,Calm,-,N/A,,Unknown,0,2013-03-05 06:52:00